Salem, IL

3:25 PM CDT on May 26, 2017 (GMT -0500)
Salem-Leckrone

Weather History for KSLO - April, 2013

Change the Weather History Date:

Saturday, April 6, 2013

  Actual Average Record
Temperature  
Mean Temperature 61 °F -  
Max Temperature 72 °F 62 °F 81 °F (1991)
Min Temperature 50 °F 39 °F 24 °F (1982)
Degree Days  
Heating Degree Days 4    
Growing Degree Days 11 (Base 50)    
Moisture  
Dew Point 39 °F    
Average Humidity 44    
Maximum Humidity 55    
Minimum Humidity 33    
Precipitation  
Precipitation 0.00 in - - ()
Sea Level Pressure  
Sea Level Pressure 29.95 in    
Wind  
Wind Speed 11 mph (SSE)    
Max Wind Speed 24 mph    
Max Gust Speed 32 mph    
Visibility 10 miles    
Events      
Averages and records for this station are not official NWS values.
T = Trace of Precipitation, MM = Missing Value Source: NWS Daily Summary

Daily Weather History Graph

Daily Weather History Graph

Search for Another Location

Airport or City:

Trip Planner

Search our weather history database for the weather conditions in past years. The results will help you decide how hot, cold, wet, or windy it might be!

Date:

Astronomy

Apr. 06, 2013 Rise Set
Actual Time 6:32 AM CDT 7:24 PM CDT
Civil Twilight 6:05 AM CDT 7:51 PM CDT
Nautical Twilight 5:33 AM CDT 8:23 PM CDT
Astronomical Twilight 5:00 AM CDT 8:56 PM CDT
Moon 4:13 AM CDT (4/6) 3:55 PM CDT (4/6)
Length of Visible Light 13h 45m
Length of Day
12h 51m
Waning Crescent, 15% of the Moon is Illuminated
Apr 6
Waning Crescent
Apr 10
New
Apr 18
First Quarter
Apr 25
Full
May 2
Last Quarter

Hourly Weather History & Observations

Time (CDT) Temp. Dew Point Humidity Pressure Visibility Wind Dir Wind Speed Gust Speed Precip Events Conditions
12:15 AM 52.7 °F 33.4 °F 48% 30.08 in 10.0 mi SE 3.5 mph - N/A   Clear
12:35 AM 52.2 °F 33.8 °F 50% 30.08 in 10.0 mi SE 3.5 mph - N/A   Clear
12:55 AM 52.2 °F 33.8 °F 50% 30.09 in 10.0 mi SE 4.6 mph - N/A   Clear
1:15 AM 52.7 °F 33.4 °F 48% 30.08 in 10.0 mi SE 4.6 mph - N/A   Clear
1:35 AM 52.7 °F 34.0 °F 49% 30.08 in 10.0 mi ESE 4.6 mph - N/A   Clear
1:55 AM 52.7 °F 33.8 °F 49% 30.08 in 10.0 mi SE 4.6 mph - N/A   Clear
2:15 AM 52.2 °F 34.2 °F 50% 30.08 in 10.0 mi SE 5.8 mph - N/A   Clear
2:35 AM 52.0 °F 34.2 °F 51% 30.07 in 10.0 mi ESE 3.5 mph - N/A   Clear
2:55 AM 51.8 °F 34.2 °F 51% 30.07 in 10.0 mi SE 5.8 mph - N/A   Clear
3:15 AM 51.4 °F 34.3 °F 52% 30.07 in 10.0 mi SE 4.6 mph - N/A   Clear
3:35 AM 51.4 °F 34.3 °F 52% 30.07 in 10.0 mi SE 5.8 mph - N/A   Clear
3:55 AM 51.4 °F 34.0 °F 51% 30.07 in 10.0 mi SE 5.8 mph - N/A   Scattered Clouds
4:15 AM 51.1 °F 33.8 °F 52% 30.06 in 10.0 mi SE 6.9 mph - N/A   Scattered Clouds
4:35 AM 50.9 °F 33.8 °F 52% 30.06 in 10.0 mi SE 5.8 mph - N/A   Clear
4:55 AM 50.5 °F 34.0 °F 53% 30.06 in 10.0 mi SE 6.9 mph - N/A   Clear
5:15 AM 50.9 °F 33.8 °F 52% 30.05 in 10.0 mi SE 8.1 mph - N/A   Clear
5:35 AM 51.1 °F 33.6 °F 51% 30.05 in 10.0 mi SE 6.9 mph - N/A   Clear
5:55 AM 51.1 °F 33.6 °F 51% 30.05 in 10.0 mi SE 9.2 mph - N/A   Clear
6:15 AM 50.9 °F 33.8 °F 52% 30.05 in 10.0 mi SE 8.1 mph - N/A   Clear
6:35 AM 50.4 °F 33.8 °F 53% 30.05 in 10.0 mi SE 8.1 mph - N/A   Clear
6:55 AM 50.0 °F 34.2 °F 55% 30.05 in 10.0 mi SE 8.1 mph - N/A   Clear
7:15 AM 50.4 °F 34.0 °F 53% 30.05 in 10.0 mi SE 8.1 mph - N/A   Clear
7:35 AM 50.7 °F 34.3 °F 53% 30.05 in 10.0 mi SE 8.1 mph - N/A   Clear
7:55 AM 50.9 °F 34.7 °F 54% 30.05 in 10.0 mi SE 8.1 mph - N/A   Clear
8:15 AM 51.3 °F 34.9 °F 54% 30.05 in 10.0 mi SE 8.1 mph - N/A   Clear
8:35 AM 53.6 °F 35.8 °F 51% 30.04 in 10.0 mi SE 8.1 mph - N/A   Clear
8:55 AM 55.6 °F 36.5 °F 49% 30.04 in 10.0 mi SE 8.1 mph - N/A   Clear
9:15 AM 57.9 °F 37.9 °F 47% 30.04 in 10.0 mi SSE 8.1 mph 16.1 mph N/A   Clear
9:35 AM 60.1 °F 38.7 °F 45% 30.03 in 10.0 mi South 12.7 mph - N/A   Clear
9:55 AM 61.5 °F 39.9 °F 45% 30.03 in 10.0 mi SSE 12.7 mph 18.4 mph N/A   Clear
10:15 AM 63.1 °F 40.3 °F 43% 30.02 in 10.0 mi South 18.4 mph 25.3 mph N/A   Clear
10:35 AM 64.2 °F 41.9 °F 44% 30.02 in 10.0 mi South 20.7 mph 27.6 mph N/A   Clear
10:55 AM 64.2 °F 42.8 °F 46% 30.02 in 10.0 mi South 15.0 mph 27.6 mph N/A   Clear
11:15 AM 65.1 °F 42.6 °F 44% 30.01 in 10.0 mi South 17.3 mph 24.2 mph N/A   Clear
11:35 AM 66.4 °F 43.0 °F 43% 30.00 in 10.0 mi South 21.9 mph 27.6 mph N/A   Clear
11:55 AM 67.8 °F 43.7 °F 42% 29.98 in 10.0 mi South 19.6 mph 27.6 mph N/A   Clear
12:15 PM 68.7 °F 43.3 °F 40% 29.98 in 10.0 mi South 15.0 mph 26.5 mph N/A   Clear
12:35 PM 68.9 °F 43.5 °F 40% 29.96 in 10.0 mi South 19.6 mph 26.5 mph N/A   Clear
12:55 PM 68.7 °F 43.7 °F 40% 29.96 in 10.0 mi South 18.4 mph 26.5 mph N/A   Clear
1:15 PM 69.8 °F 41.5 °F 36% 29.94 in 10.0 mi South 20.7 mph 26.5 mph N/A   Clear
1:35 PM 71.2 °F 43.3 °F 37% 29.93 in 10.0 mi South 18.4 mph 26.5 mph N/A   Clear
1:55 PM 70.7 °F 41.7 °F 35% 29.91 in 10.0 mi South 17.3 mph 25.3 mph N/A   Clear
2:15 PM 72.5 °F 42.6 °F 34% 29.90 in 10.0 mi SSW 24.2 mph 28.8 mph N/A   Clear
2:35 PM 72.0 °F 42.8 °F 35% 29.88 in 10.0 mi South 18.4 mph 25.3 mph N/A   Clear
2:55 PM 71.8 °F 42.8 °F 35% 29.87 in 10.0 mi South 20.7 mph 25.3 mph N/A   Clear
3:15 PM 72.1 °F 42.3 °F 34% 29.85 in 10.0 mi South 24.2 mph 32.2 mph N/A   Clear
3:35 PM 71.1 °F 42.3 °F 35% 29.84 in 10.0 mi South 23.0 mph 29.9 mph N/A   Clear
3:55 PM 71.2 °F 41.7 °F 34% 29.82 in 10.0 mi South 18.4 mph 27.6 mph N/A   Clear
4:15 PM 71.8 °F 41.2 °F 33% 29.80 in 10.0 mi South 19.6 mph 28.8 mph N/A   Clear
4:35 PM 71.1 °F 41.2 °F 34% 29.80 in 10.0 mi South 19.6 mph 32.2 mph N/A   Clear
4:55 PM 71.2 °F 40.3 °F 33% 29.81 in 10.0 mi South 19.6 mph 28.8 mph N/A   Clear
5:15 PM 71.2 °F 42.6 °F 36% 29.83 in 10.0 mi South 17.3 mph 24.2 mph N/A   Clear
5:35 PM 70.0 °F 42.1 °F 36% 29.82 in 10.0 mi South 21.9 mph 28.8 mph N/A   Clear
5:55 PM 69.4 °F 41.0 °F 36% 29.83 in 10.0 mi South 17.3 mph 26.5 mph N/A   Clear
6:15 PM 69.3 °F 39.4 °F 34% 29.81 in 10.0 mi South 15.0 mph - N/A   Clear
6:35 PM 68.9 °F 39.6 °F 34% 29.80 in 10.0 mi South 20.7 mph 26.5 mph N/A   Scattered Clouds
6:55 PM 68.4 °F 39.4 °F 35% 29.80 in 10.0 mi South 16.1 mph 24.2 mph N/A   Clear
7:15 PM 68.0 °F 39.4 °F 35% 29.80 in 10.0 mi South 18.4 mph 26.5 mph N/A   Scattered Clouds
7:35 PM 68.2 °F 38.7 °F 34% 29.79 in 10.0 mi South 18.4 mph 24.2 mph N/A   Scattered Clouds
7:55 PM 67.3 °F 39.2 °F 36% 29.80 in 10.0 mi South 18.4 mph 26.5 mph N/A   Scattered Clouds
8:15 PM 67.1 °F 38.7 °F 35% 29.81 in 10.0 mi South 18.4 mph 24.2 mph N/A   Clear
8:35 PM 66.7 °F 38.7 °F 36% 29.82 in 10.0 mi SSW 21.9 mph 26.5 mph N/A   Scattered Clouds
8:55 PM 66.4 °F 39.2 °F 37% 29.82 in 10.0 mi South 18.4 mph 25.3 mph N/A   Clear
9:15 PM 66.2 °F 39.7 °F 38% 29.83 in 10.0 mi South 19.6 mph 31.1 mph N/A   Clear
9:35 PM 65.7 °F 40.8 °F 40% 29.84 in 10.0 mi South 18.4 mph 28.8 mph N/A   Clear
9:55 PM 65.5 °F 42.1 °F 43% 29.84 in 10.0 mi South 20.7 mph 26.5 mph N/A   Clear
10:15 PM 65.3 °F 43.2 °F 45% 29.84 in 10.0 mi South 20.7 mph 26.5 mph N/A   Clear
10:35 PM 64.9 °F 43.9 °F 46% 29.84 in 10.0 mi South 21.9 mph 31.1 mph N/A   Clear
10:55 PM 64.6 °F 44.6 °F 48% 29.84 in 10.0 mi SSW 20.7 mph 27.6 mph N/A   Clear
11:15 PM 64.0 °F 45.1 °F 50% 29.83 in 10.0 mi SSW 20.7 mph 28.8 mph N/A   Clear
11:35 PM 63.7 °F 45.5 °F 52% 29.83 in 10.0 mi SSW 19.6 mph 28.8 mph N/A   Clear
11:55 PM 63.7 °F 45.3 °F 51% 29.83 in 10.0 mi SSW 19.6 mph 27.6 mph N/A   Clear